User: anonymous   Login
Location: Schommer Observatory
(40.5200°N, 74.4500°W)
Time: 22:41:50
(UTC-05:00)
Language:

DOVE 4 - Orbit

View from above orbital plane
View from above orbital plane
View from above satellite
View from above satellite

Ground track
Ground track

The orbit data is extracted from the following two-line orbital elements,

1 39430U 13066Q   19054.76653660  .00000058  00000-0  19979-4 0  9995
2 39430  97.7309  18.9903 0149787 256.5952 101.8508 14.59199517279840
Epoch (UTC): 23 February 2019 18:23:48
Eccentricity: 0.0149787
inclination: 97.7309°
perigee height: 590 km
apogee height: 802 km
right ascension of ascending node: 18.9903°
argument of perigee: 256.5952°
revolutions per day: 14.59199517
mean anomaly at epoch: 101.8508°
orbit number at epoch: 27984

The dashed part of the orbit path shows where the satellite is in the earth's shadow,  

DLR